Location: Pedholt
(56.0260°N, 10.2097°E)
Time: 07:38:14
(UTC+00:00)

SR - Pass Details

Date: 02 August 2021
Orbit: 581 x 874 km, 66.7° (Epoch: 24 September)

Event Time Altitude Azimuth Distance (km) Brightness Sun altitude
Rises 09:48:04 0° 294° (WNW) 3,316 ? 47.4°
Reaches altitude 10° 09:50:59 10° 307° (NW) 2,335 ? 47.7°
Maximum altitude 09:55:23 25° 2° (N) 1,462 ? 48.0°
Drops below altitude 10° 09:59:29 10° 59° (ENE) 2,170 ? 48.3°
Sets 10:02:06 0° 72° (ENE) 3,033 ? 48.5°
